Location: Kingston
(44.2312°N, 76.4860°W)
Time: 13:39:59
(UTC-04:00)

Tiangong 2 - Visible Passes

Search period start: 24 May 2018 00:00
Search period end: 03 June 2018 00:00
Orbit: 382 x 385 km, 42.8° (Epoch: 24 May)

Date Brightness Start Highest point End Pass type
(mag) Time Alt. Az. Time Alt. Az. Time Alt. Az.
24 May 1.2 21:44:05 10° WSW 21:47:09 51° SSE 21:49:55 12° E visible
24 May 2.8 23:20:37 10° W 23:22:08 25° W 23:22:08 25° W visible
25 May 0.9 22:20:51 10° W 22:23:59 68° S 22:25:10 34° ESE visible
26 May 1.1 21:21:05 10° WSW 21:24:12 63° S 21:27:20 10° E visible
26 May 1.6 22:57:43 10° W 23:00:16 46° SW 23:00:16 46° SW visible
27 May 1.0 21:57:55 10° W 22:01:03 66° S 22:03:05 19° ESE visible
27 May 3.7 23:34:43 10° W 23:35:16 14° W 23:35:16 14° W visible
28 May 1.5 22:34:49 10° W 22:37:49 42° SSW 22:38:02 41° S visible
29 May 1.2 21:34:58 10° W 21:38:04 56° S 21:40:47 13° ESE visible
29 May 3.4 23:12:02 10° WSW 23:12:57 15° WSW 23:12:57 15° WSW visible
30 May 2.2 22:11:57 10° W 22:14:46 30° SSW 22:15:41 25° SSE visible
31 May 1.7 21:12:01 10° W 21:15:02 42° SSW 21:18:03 10° ESE visible
31 May 3.5 22:49:45 10° WSW 22:50:36 12° SW 22:50:36 12° SW visible
01 Jun 2.8 21:49:12 10° WSW 21:51:38 20° SSW 21:53:21 14° SSE visible
